timestamp,wind_dir_avg,wind_spd_avg,wind_spd_max_dir,wind_spd_gust,battery_voltage,lat,long
2023-03-10 00:04:00+00:00,10.0,13.36,5.0,15.9,12.33,47.59359,-54.27349
2023-03-10 00:14:00+00:00,9.0,12.21,10.0,15.38,12.33,47.59359,-54.27349
2023-03-10 00:24:00+00:00,4.0,14.09,7.0,17.73,12.33,47.59359,-54.27349
2023-03-10 00:34:00+00:00,2.0,13.77,8.0,16.95,12.33,47.59359,-54.27349
2023-03-10 00:44:00+00:00,13.0,14.04,9.0,16.11,12.33,47.59359,-54.27349
2023-03-10 00:54:00+00:00,6.0,10.98,7.0,14.01,12.33,47.59359,-54.27349
2023-03-10 01:04:00+00:00,11.0,11.85,15.0,14.16,12.33,47.59359,-54.27349
2023-03-10 01:14:00+00:00,5.0,11.26,5.0,13.8,12.25,47.59359,-54.27349
2023-03-10 01:24:00+00:00,13.0,12.94,13.0,15.1,12.25,47.59359,-54.27349
2023-03-10 01:34:00+00:00,12.0,12.9,13.0,14.71,12.25,47.59359,-54.27349
2023-03-10 01:44:00+00:00,14.0,14.12,14.0,15.64,12.25,47.59359,-54.27349
2023-03-10 01:54:00+00:00,10.0,11.31,12.0,13.41,12.25,47.59359,-54.27349
2023-03-10 02:04:00+00:00,7.0,10.74,3.0,12.76,12.25,47.59359,-54.27349
2023-03-10 02:14:00+00:00,12.0,11.18,15.0,13.33,12.25,47.59359,-54.27349
2023-03-10 02:24:00+00:00,10.0,11.55,8.0,13.56,12.25,47.59359,-54.27349
2023-03-10 02:34:00+00:00,8.0,11.5,4.0,14.5,12.25,47.59359,-54.27349
2023-03-10 02:44:00+00:00,14.0,11.54,12.0,13.08,12.25,47.59359,-54.27349
2023-03-10 02:54:00+00:00,12.0,11.46,9.0,12.97,12.25,47.59359,-54.27349
2023-03-10 03:04:00+00:00,7.0,9.78,14.0,11.31,12.25,47.59359,-54.27349
2023-03-10 03:14:00+00:00,6.0,12.45,7.0,14.26,12.25,47.59359,-54.27349
2023-03-10 03:24:00+00:00,12.0,12.42,12.0,14.42,12.25,47.59359,-54.27349
2023-03-10 03:34:00+00:00,12.0,8.81,10.0,10.25,12.25,47.59359,-54.27349
2023-03-10 03:44:00+00:00,13.0,11.92,15.0,14.07,12.25,47.59359,-54.27349
2023-03-10 03:54:00+00:00,13.0,14.1,13.0,16.27,12.25,47.59359,-54.27349
2023-03-10 04:04:00+00:00,12.0,12.64,15.0,14.84,12.25,47.59359,-54.27349
2023-03-10 04:14:01+00:00,7.0,11.31,8.0,12.76,12.17,47.59359,-54.27349
2023-03-10 04:24:01+00:00,11.0,11.26,18.0,12.88,12.17,47.59359,-54.27349
2023-03-10 04:34:01+00:00,12.0,12.24,6.0,14.02,12.17,47.59359,-54.27349
2023-03-10 04:44:01+00:00,12.0,11.92,13.0,13.57,12.17,47.59359,-54.27349
2023-03-10 04:54:01+00:00,11.0,11.65,11.0,13.72,12.17,47.59359,-54.27349
2023-03-10 05:04:01+00:00,9.0,9.78,7.0,11.89,12.17,47.59359,-54.27349
2023-03-10 05:14:00+00:00,10.0,9.93,8.0,11.42,12.17,47.59359,-54.27349
2023-03-10 05:24:00+00:00,13.0,9.85,11.0,11.67,12.17,47.59359,-54.27349
2023-03-10 05:34:00+00:00,7.0,9.94,15.0,11.65,12.17,47.59359,-54.27349
2023-03-10 05:44:00+00:00,3.0,9.76,3.0,11.07,12.17,47.59359,-54.27349
2023-03-10 05:54:00+00:00,359.0,8.12,4.0,9.93,12.17,47.59359,-54.27349
2023-03-10 06:04:00+00:00,2.0,11.79,6.0,13.34,12.17,47.59359,-54.27349
2023-03-10 06:14:00+00:00,2.0,10.47,1.0,12.24,12.17,47.59359,-54.27349
2023-03-10 06:24:00+00:00,5.0,11.33,5.0,13.41,12.17,47.59359,-54.27349
2023-03-10 06:34:00+00:00,5.0,11.23,2.0,13.05,12.17,47.59359,-54.27349
2023-03-10 06:44:00+00:00,4.0,11.72,358.0,13.5,12.17,47.59359,-54.27349
2023-03-10 06:54:00+00:00,6.0,10.62,7.0,13.67,12.17,47.59359,-54.27349
2023-03-10 07:04:00+00:00,6.0,10.11,5.0,12.16,12.17,47.59359,-54.27349
2023-03-10 07:14:00+00:00,10.0,9.96,16.0,11.37,12.09,47.59359,-54.27349
2023-03-10 07:24:00+00:00,2.0,11.77,0.0,13.64,12.09,47.59359,-54.27349
2023-03-10 07:34:00+00:00,5.0,11.35,5.0,14.99,12.09,47.59359,-54.27349
2023-03-10 07:44:00+00:00,12.0,12.86,14.0,14.48,12.09,47.59359,-54.27349
2023-03-10 07:54:00+00:00,10.0,10.11,5.0,11.64,12.09,47.59359,-54.27349
2023-03-10 08:04:00+00:00,356.0,11.69,352.0,13.92,12.09,47.59359,-54.27349
2023-03-10 08:14:00+00:00,2.0,9.95,6.0,11.6,12.09,47.59359,-54.27349
2023-03-10 08:24:00+00:00,6.0,10.58,3.0,12.61,12.09,47.59359,-54.27349
2023-03-10 08:34:00+00:00,1.0,12.33,358.0,14.11,12.09,47.59359,-54.27349
2023-03-10 08:44:00+00:00,358.0,13.31,0.0,16.87,12.09,47.59359,-54.27349
2023-03-10 08:54:00+00:00,350.0,11.78,352.0,13.27,12.09,47.59359,-54.27349
2023-03-10 09:04:00+00:00,349.0,11.06,351.0,12.57,12.09,47.59359,-54.27349
2023-03-10 09:14:00+00:00,346.0,13.35,351.0,15.31,12.09,47.59359,-54.27349
2023-03-10 09:24:00+00:00,343.0,13.52,346.0,15.16,12.09,47.59359,-54.27349
2023-03-10 09:34:00+00:00,344.0,12.56,344.0,13.98,12.09,47.59359,-54.27349
2023-03-10 09:44:00+00:00,341.0,14.45,341.0,17.76,12.09,47.59359,-54.27349
2023-03-10 09:54:00+00:00,349.0,14.35,351.0,17.12,12.09,47.59359,-54.27349
2023-03-10 10:04:00+00:00,349.0,13.55,348.0,15.74,12.09,47.59359,-54.27349
2023-03-10 10:14:01+00:00,341.0,13.95,352.0,15.94,12.09,47.59359,-54.27349
2023-03-10 10:24:01+00:00,345.0,12.58,341.0,14.13,12.09,47.59359,-54.27349
2023-03-10 10:34:01+00:00,347.0,12.41,350.0,15.07,12.09,47.59359,-54.27349
2023-03-10 10:44:01+00:00,344.0,13.34,347.0,16.38,12.09,47.59359,-54.27349
2023-03-10 10:54:01+00:00,343.0,12.36,346.0,14.35,12.09,47.59359,-54.27349
2023-03-10 11:04:01+00:00,340.0,14.66,335.0,16.23,12.09,47.59359,-54.27349
2023-03-10 11:14:00+00:00,343.0,12.1,343.0,14.67,13.68,47.59359,-54.27349
2023-03-10 11:24:00+00:00,340.0,11.98,344.0,13.81,13.68,47.59359,-54.27349
2023-03-10 11:34:00+00:00,341.0,10.74,335.0,12.76,13.68,47.59359,-54.27349
2023-03-10 11:44:00+00:00,341.0,10.99,346.0,13.31,13.68,47.59359,-54.27349
2023-03-10 11:54:00+00:00,340.0,12.12,339.0,15.11,13.68,47.59359,-54.27349
2023-03-10 12:04:00+00:00,340.0,11.59,341.0,13.79,13.68,47.59359,-54.27349
2023-03-10 12:14:00+00:00,347.0,12.97,353.0,15.74,13.68,47.59359,-54.27349
2023-03-10 12:24:00+00:00,348.0,13.74,350.0,15.46,13.68,47.59359,-54.27349
2023-03-10 12:34:00+00:00,344.0,15.65,346.0,19.41,13.68,47.59359,-54.27349
2023-03-10 12:44:00+00:00,346.0,12.51,342.0,14.12,13.68,47.59359,-54.27349
2023-03-10 12:54:00+00:00,343.0,13.61,340.0,17.29,13.68,47.59359,-54.27349
2023-03-10 13:04:00+00:00,350.0,14.83,351.0,17.34,13.68,47.59359,-54.27349
2023-03-10 13:14:00+00:00,343.0,13.17,342.0,15.09,14.08,47.59359,-54.27349
2023-03-10 13:24:00+00:00,349.0,13.69,351.0,15.82,14.08,47.59359,-54.27349
2023-03-10 13:34:00+00:00,356.0,13.06,7.0,14.63,14.08,47.59359,-54.27349
2023-03-10 13:44:00+00:00,0.0,12.78,8.0,14.35,14.08,47.59359,-54.27349
2023-03-10 13:54:00+00:00,358.0,13.57,359.0,15.58,14.08,47.59359,-54.27349
2023-03-10 14:04:00+00:00,351.0,11.24,346.0,13.25,14.08,47.59359,-54.27349
2023-03-10 14:14:00+00:00,0.0,14.04,2.0,16.86,14.48,47.59359,-54.27349
2023-03-10 14:24:00+00:00,352.0,12.23,354.0,15.33,14.48,47.59359,-54.27349
2023-03-10 14:34:00+00:00,356.0,13.97,355.0,15.89,14.48,47.59359,-54.27349
2023-03-10 14:44:00+00:00,356.0,13.56,1.0,17.66,14.48,47.59359,-54.27349
2023-03-10 14:54:00+00:00,352.0,12.2,351.0,14.95,14.48,47.59359,-54.27349
2023-03-10 15:04:00+00:00,349.0,13.87,346.0,16.84,14.48,47.59359,-54.27349
2023-03-10 15:14:00+00:00,3.0,13.23,355.0,15.04,14.48,47.59359,-54.27349
2023-03-10 15:24:00+00:00,344.0,12.93,348.0,16.04,14.48,47.59359,-54.27349
2023-03-10 15:34:00+00:00,353.0,12.7,351.0,14.99,14.48,47.59359,-54.27349
2023-03-10 15:44:00+00:00,341.0,15.21,337.0,20.54,14.48,47.59359,-54.27349
2023-03-10 15:54:00+00:00,351.0,12.07,350.0,13.72,14.48,47.59359,-54.27349
2023-03-10 16:04:00+00:00,2.0,14.73,1.0,18.8,14.48,47.59359,-54.27349
2023-03-10 16:14:00+00:00,352.0,15.4,354.0,18.11,14.0,47.59359,-54.27349
2023-03-10 16:24:00+00:00,349.0,14.6,348.0,17.29,14.0,47.59359,-54.27349
2023-03-10 16:34:00+00:00,352.0,13.02,355.0,14.54,14.0,47.59359,-54.27349
2023-03-10 16:44:00+00:00,348.0,11.19,354.0,12.88,14.0,47.59359,-54.27349
2023-03-10 16:54:00+00:00,350.0,12.7,348.0,15.1,14.0,47.59359,-54.27349
2023-03-10 17:04:00+00:00,345.0,12.51,343.0,14.6,14.0,47.59359,-54.27349
2023-03-10 17:14:00+00:00,347.0,12.52,357.0,15.97,14.24,47.59359,-54.27349
2023-03-10 17:24:00+00:00,344.0,9.71,342.0,11.08,14.24,47.59359,-54.27349
2023-03-10 17:34:00+00:00,339.0,11.81,326.0,14.79,14.24,47.59359,-54.27349
2023-03-10 17:44:00+00:00,344.0,12.83,326.0,14.59,14.24,47.59359,-54.27349
2023-03-10 17:54:00+00:00,343.0,11.87,334.0,12.87,14.24,47.59359,-54.27349
2023-03-10 18:04:00+00:00,333.0,11.86,320.0,15.06,14.24,47.59359,-54.27349
2023-03-10 18:14:00+00:00,344.0,12.36,344.0,13.74,13.68,47.59359,-54.27349
2023-03-10 18:24:00+00:00,349.0,10.19,351.0,11.92,13.68,47.59359,-54.27349
2023-03-10 18:34:00+00:00,332.0,13.63,325.0,16.36,13.68,47.59359,-54.27349
2023-03-10 18:44:00+00:00,337.0,11.36,341.0,13.27,13.68,47.59359,-54.27349
2023-03-10 18:54:00+00:00,341.0,11.83,348.0,13.84,13.68,47.59359,-54.27349
2023-03-10 19:04:00+00:00,335.0,13.62,329.0,17.55,13.68,47.59359,-54.27349
2023-03-10 19:14:00+00:00,344.0,11.5,352.0,15.24,13.68,47.59359,-54.27349
2023-03-10 19:24:00+00:00,347.0,9.59,346.0,10.79,13.68,47.59359,-54.27349
2023-03-10 19:34:00+00:00,335.0,12.74,330.0,15.52,13.68,47.59359,-54.27349
2023-03-10 19:44:00+00:00,331.0,10.78,317.0,13.05,13.68,47.59359,-54.27349
2023-03-10 19:54:00+00:00,336.0,12.47,324.0,14.57,13.68,47.59359,-54.27349
2023-03-10 20:04:00+00:00,336.0,9.58,336.0,11.14,13.68,47.59359,-54.27349
2023-03-10 20:14:00+00:00,333.0,11.31,317.0,14.17,13.53,47.59359,-54.27349
2023-03-10 20:24:00+00:00,332.0,10.47,326.0,12.98,13.53,47.59359,-54.27349
2023-03-10 20:34:00+00:00,329.0,10.62,328.0,12.97,13.53,47.59359,-54.27349
2023-03-10 20:44:00+00:00,335.0,9.37,314.0,11.46,13.53,47.59359,-54.27349
2023-03-10 20:54:00+00:00,330.0,9.51,329.0,11.76,13.53,47.59359,-54.27349
2023-03-10 21:04:00+00:00,329.0,9.11,316.0,11.84,13.53,47.59359,-54.27349
2023-03-10 21:14:00+00:00,328.0,7.38,312.0,10.65,13.05,47.59359,-54.27349
2023-03-10 21:24:00+00:00,336.0,9.32,341.0,11.4,13.05,47.59359,-54.27349
2023-03-10 21:34:00+00:00,337.0,9.05,334.0,10.17,13.05,47.59359,-54.27349
2023-03-10 21:44:00+00:00,331.0,9.96,320.0,11.44,13.05,47.59359,-54.27349
2023-03-10 21:54:00+00:00,331.0,8.72,330.0,10.53,13.05,47.59359,-54.27349
2023-03-10 22:04:00+00:00,327.0,7.96,328.0,10.2,13.05,47.59359,-54.27349
2023-03-10 22:14:00+00:00,325.0,10.45,320.0,12.79,12.49,47.59359,-54.27349
2023-03-10 22:24:00+00:00,312.0,9.46,308.0,11.62,12.49,47.59359,-54.27349
2023-03-10 22:34:00+00:00,320.0,8.66,316.0,11.07,12.49,47.59359,-54.27349
2023-03-10 22:44:00+00:00,322.0,9.31,316.0,12.0,12.49,47.59359,-54.27349
2023-03-10 22:54:00+00:00,321.0,9.86,323.0,11.89,12.49,47.59359,-54.27349
2023-03-10 23:04:00+00:00,319.0,11.97,321.0,13.92,12.49,47.59359,-54.27349
2023-03-10 23:14:00+00:00,318.0,11.4,319.0,13.77,12.33,47.59359,-54.27349
2023-03-10 23:24:00+00:00,328.0,8.83,333.0,10.25,12.33,47.59359,-54.27349
2023-03-10 23:34:00+00:00,321.0,9.91,314.0,12.9,12.33,47.59359,-54.27349
2023-03-10 23:44:00+00:00,329.0,8.92,320.0,10.94,12.33,47.59359,-54.27349
2023-03-10 23:54:00+00:00,327.0,11.57,322.0,14.12,12.33,47.59359,-54.27349
